When you browse on this site, cookies collect data to enhance your experience and personalize the content and advertising you see.
Visit our Privacy Policy to learn more. By continuing to use the site, you agree to this use of cookies and data.
  • In Portugal
  • List of Countries
  • For 7 days
  • Water Temperature
  • Weather Map
  • Weather Widgets
  • user-avatar
    Login

    Hourly Weather Garlino

    Today, 4 June, Thursday

    Time Temperature Precipitation Wind Pressure Humidity
    00:00 +7°C° 0 mm 2 mps 740 mmHg 93%
    01:00 +8°C° 0 mm 1 mps 740 mmHg 94%
    02:00 +8°C° 0 mm 1 mps 740 mmHg 94%
    03:00 +8°C° 0 mm 1 mps 739 mmHg 94%
    04:00 +7°C° 0 mm 1 mps 739 mmHg 94%
    05:00 +9°C° 0 mm 1 mps 739 mmHg 89%
    06:00 +11°C° 0 mm 1 mps 739 mmHg 84%
    07:00 +13°C° 0 mm 1 mps 739 mmHg 78%
    08:00 +15°C° 0.1 mm 1 mps 739 mmHg 72%
    09:00 +15°C° 0.1 mm 0 mps 738 mmHg 66%
    10:00 +17°C° 0.1 mm 0 mps 738 mmHg 60%
    11:00 +17°C° 0.1 mm 0 mps 738 mmHg 58%
    12:00 +19°C° 0.1 mm 1 mps 738 mmHg 56%
    13:00 +20°C° 0.1 mm 1 mps 737 mmHg 54%
    14:00 +20°C° 0.1 mm 1 mps 737 mmHg 53%
    15:00 +20°C° 0.1 mm 1 mps 737 mmHg 52%
    16:00 +20°C° 0.1 mm 1 mps 736 mmHg 52%
    17:00 +19°C° 0 mm 1 mps 736 mmHg 59%
    18:00 +17°C° 0 mm 2 mps 736 mmHg 66%
    19:00 +16°C° 0 mm 2 mps 736 mmHg 72%
    20:00 +14°C° 0 mm 2 mps 736 mmHg 76%
    21:00 +13°C° 0 mm 2 mps 736 mmHg 80%
    22:00 +11°C° 0 mm 3 mps 736 mmHg 84%
    23:00 +10°C° 0 mm 3 mps 736 mmHg 85%

    Tomorrow, 5 June, Friday

    Time Temperature Precipitation Wind Pressure Humidity
    00:00 +10°C° 0 mm 3 mps 735 mmHg 87%
    01:00 +8°C° 0 mm 4 mps 735 mmHg 88%
    02:00 +8°C° 0 mm 4 mps 735 mmHg 88%
    03:00 +8°C° 0 mm 4 mps 734 mmHg 88%
    04:00 +8°C° 0 mm 4 mps 734 mmHg 88%
    05:00 +11°C° 0 mm 4 mps 734 mmHg 83%
    06:00 +13°C° 0 mm 5 mps 734 mmHg 78%
    07:00 +15°C° 0 mm 5 mps 734 mmHg 73%
    08:00 +16°C° 0 mm 5 mps 734 mmHg 73%
    09:00 +19°C° 0 mm 6 mps 734 mmHg 72%
    10:00 +20°C° 0 mm 6 mps 734 mmHg 72%
    11:00 +20°C° 0.8 mm 5 mps 734 mmHg 76%
    12:00 +19°C° 0.8 mm 5 mps 734 mmHg 80%
    13:00 +19°C° 0.8 mm 4 mps 734 mmHg 85%
    14:00 +18°C° 0.3 mm 4 mps 734 mmHg 86%
    15:00 +16°C° 0.3 mm 5 mps 734 mmHg 87%
    16:00 +15°C° 0.3 mm 5 mps 734 mmHg 89%
    17:00 +14°C° 0 mm 4 mps 735 mmHg 89%
    18:00 +14°C° 0 mm 3 mps 735 mmHg 89%
    19:00 +15°C° 0 mm 2 mps 736 mmHg 89%
    20:00 +14°C° 0 mm 2 mps 736 mmHg 91%
    21:00 +13°C° 0 mm 3 mps 736 mmHg 92%
    22:00 +12°C° 0 mm 3 mps 737 mmHg 94%
    23:00 +12°C° 0 mm 3 mps 737 mmHg 95%

    Day after tomorrow, 6 June, Saturday

    Time Temperature Precipitation Wind Pressure Humidity
    00:00 +11°C° 0 mm 3 mps 737 mmHg 95%
    01:00 +11°C° 0 mm 3 mps 737 mmHg 95%
    02:00 +11°C° 0 mm 4 mps 737 mmHg 96%
    03:00 +11°C° 0 mm 4 mps 737 mmHg 96%
    04:00 +10°C° 0 mm 5 mps 737 mmHg 96%
    05:00 +11°C° 0 mm 6 mps 738 mmHg 90%
    06:00 +13°C° 0 mm 6 mps 738 mmHg 83%
    07:00 +15°C° 0 mm 7 mps 739 mmHg 76%
    08:00 +15°C° 0.1 mm 8 mps 739 mmHg 72%
    09:00 +16°C° 0.1 mm 8 mps 740 mmHg 68%
    10:00 +17°C° 0.1 mm 8 mps 740 mmHg 64%
    11:00 +17°C° 0 mm 8 mps 741 mmHg 61%
    12:00 +18°C° 0 mm 8 mps 741 mmHg 58%
    13:00 +20°C° 0 mm 7 mps 741 mmHg 55%
    14:00 +20°C° 0 mm 7 mps 742 mmHg 58%
    15:00 +20°C° 0 mm 7 mps 742 mmHg 61%
    16:00 +20°C° 0 mm 6 mps 742 mmHg 64%
    17:00 +19°C° 0 mm 6 mps 742 mmHg 68%
    18:00 +17°C° 0 mm 5 mps 742 mmHg 72%
    19:00 +17°C° 0 mm 4 mps 742 mmHg 77%
    20:00 +15°C° 0 mm 4 mps 743 mmHg 81%
    21:00 +14°C° 0 mm 3 mps 743 mmHg 86%
    22:00 +13°C° 0 mm 3 mps 743 mmHg 90%
    23:00 +13°C° 0 mm 3 mps 744 mmHg 89%

    7 June, Sunday

    Time Temperature Precipitation Wind Pressure Humidity
    00:00 +13°C° 0 mm 3 mps 744 mmHg 88%
    01:00 +14°C° 0 mm 2 mps 744 mmHg 87%
    02:00 +14°C° 0 mm 2 mps 744 mmHg 86%
    03:00 +14°C° 0 mm 1 mps 744 mmHg 85%
    04:00 +14°C° 0 mm 1 mps 744 mmHg 84%
    05:00 +15°C° 0 mm 1 mps 744 mmHg 82%
    06:00 +16°C° 0 mm 2 mps 744 mmHg 80%
    07:00 +17°C° 0 mm 3 mps 744 mmHg 79%
    08:00 +18°C° 0.2 mm 2 mps 744 mmHg 78%
    09:00 +19°C° 0.2 mm 2 mps 744 mmHg 78%
    10:00 +20°C° 0.2 mm 2 mps 744 mmHg 78%
    11:00 +20°C° 0.3 mm 3 mps 744 mmHg 79%
    12:00 +19°C° 0.3 mm 3 mps 744 mmHg 81%
    13:00 +19°C° 0.3 mm 4 mps 743 mmHg 82%
    14:00 +19°C° 0.1 mm 4 mps 743 mmHg 81%
    15:00 +19°C° 0.1 mm 4 mps 744 mmHg 81%
    16:00 +18°C° 0.1 mm 4 mps 744 mmHg 80%
    17:00 +17°C° 0 mm 4 mps 744 mmHg 82%
    18:00 +17°C° 0 mm 3 mps 744 mmHg 84%
    19:00 +16°C° 0 mm 2 mps 745 mmHg 85%
    20:00 +15°C° 0 mm 2 mps 745 mmHg 87%
    21:00 +14°C° 0 mm 2 mps 745 mmHg 88%
    22:00 +13°C° 0 mm 1 mps 746 mmHg 89%
    23:00 +12°C° 0 mm 2 mps 746 mmHg 89%

    8 June, Monday

    Time Temperature Precipitation Wind Pressure Humidity
    00:00 +12°C° 0 mm 2 mps 746 mmHg 89%
    01:00 +12°C° 0 mm 2 mps 746 mmHg 89%
    02:00 +10°C° 0 mm 2 mps 746 mmHg 89%
    03:00 +10°C° 0 mm 2 mps 746 mmHg 88%
    04:00 +10°C° 0 mm 2 mps 746 mmHg 87%
    05:00 +12°C° 0 mm 3 mps 747 mmHg 82%
    06:00 +13°C° 0 mm 3 mps 747 mmHg 77%
    07:00 +14°C° 0 mm 4 mps 747 mmHg 72%
    08:00 +15°C° 0.3 mm 4 mps 747 mmHg 71%
    09:00 +16°C° 0.3 mm 5 mps 747 mmHg 70%
    10:00 +17°C° 0.3 mm 5 mps 747 mmHg 70%
    11:00 +16°C° 0.3 mm 5 mps 747 mmHg 73%
    12:00 +16°C° 0.3 mm 5 mps 746 mmHg 77%
    13:00 +15°C° 0.3 mm 5 mps 746 mmHg 81%
    14:00 +15°C° 0 mm 5 mps 746 mmHg 82%
    15:00 +16°C° 0 mm 6 mps 746 mmHg 83%
    16:00 +16°C° 0 mm 6 mps 746 mmHg 83%
    17:00 +16°C° 0 mm 5 mps 746 mmHg 85%
    18:00 +16°C° 0 mm 5 mps 746 mmHg 87%
    19:00 +16°C° 0 mm 5 mps 746 mmHg 88%
    20:00 +15°C° 0 mm 4 mps 746 mmHg 90%
    21:00 +14°C° 0 mm 4 mps 746 mmHg 92%
    22:00 +13°C° 0 mm 4 mps 746 mmHg 95%
    23:00 +13°C° 0 mm 4 mps 746 mmHg 95%

    9 June, Tuesday

    Time Temperature Precipitation Wind Pressure Humidity
    00:00 +13°C° 0 mm 4 mps 746 mmHg 96%
    01:00 +13°C° 0 mm 4 mps 746 mmHg 97%
    02:00 +13°C° 0 mm 4 mps 746 mmHg 96%
    03:00 +13°C° 0 mm 4 mps 746 mmHg 96%
    04:00 +14°C° 0 mm 4 mps 746 mmHg 95%
    05:00 +15°C° 0 mm 4 mps 746 mmHg 93%
    06:00 +16°C° 0 mm 3 mps 746 mmHg 90%
    07:00 +17°C° 0 mm 3 mps 746 mmHg 88%
    08:00 +19°C° 0 mm 3 mps 747 mmHg 83%
    09:00 +20°C° 0 mm 3 mps 747 mmHg 78%
    10:00 +23°C° 0 mm 2 mps 747 mmHg 73%
    11:00 +23°C° 0.2 mm 2 mps 747 mmHg 71%
    12:00 +24°C° 0.2 mm 2 mps 747 mmHg 68%
    13:00 +25°C° 0.2 mm 2 mps 747 mmHg 66%
    14:00 +25°C° 0.6 mm 3 mps 747 mmHg 68%
    15:00 +25°C° 0.6 mm 3 mps 747 mmHg 70%
    16:00 +25°C° 0.6 mm 3 mps 746 mmHg 71%
    17:00 +24°C° 0.7 mm 3 mps 747 mmHg 77%
    18:00 +21°C° 0.7 mm 3 mps 747 mmHg 82%
    19:00 +20°C° 0.7 mm 3 mps 747 mmHg 88%
    20:00 +19°C° 0.3 mm 3 mps 747 mmHg 90%
    21:00 +18°C° 0.3 mm 3 mps 747 mmHg 93%
    22:00 +17°C° 0.3 mm 3 mps 747 mmHg 95%
    23:00 +17°C° 0 mm 3 mps 747 mmHg 95%
    Show more